Location: Newark
(44.3681°N, 100.3364°W)
Time: 07:55:55
(UTC+00:00)

Explorer 7 - Pass Details

Date: 22 February 2020
Orbit: 485 x 679 km, 50.3° (Epoch: 28 March)

Event Time Altitude Azimuth Distance (km) Brightness Sun altitude
Rises 02:11:33 0° 284° (WNW) 2,678 11.9 -20.9°
Reaches altitude 10° 02:15:12 10° 250° (WSW) 1,737 10.3 -21.6°
Maximum altitude 02:16:30 11° 230° (SW) 1,631 9.8 -21.8°
Drops below altitude 10° 02:17:48 10° 211° (SSW) 1,706 9.6 -22.0°
Enters shadow 02:20:00 - 186° (S) 2,165 9.8 -22.4°
Sets 02:21:17 0° 176° (S) 2,553 - -22.7°
